When you browse on this site, cookies collect data to enhance your experience and personalize the content and advertising you see.
Visit our Privacy Policy to learn more. By continuing to use the site, you agree to this use of cookies and data.
  • Em Portugal
  • Lista de países
  • Para 7 dias
  • Temperatura da água
  • Mapas de satélite
  • Mapa do tempo
  • Widgets de tempo
  • user-avatar
    Iniciar Sessão

    Previsão horária em Kushnikovo

    Hoje, 24 Abril, Quarta-feira

    Tempo Temperatura Precipitação Vento Pressão Humidade
    00:00 +10°C° 0 mm 1 m/s 751 mmHg 66%
    01:00 +10°C° 0 mm 1 m/s 751 mmHg 66%
    02:00 +9°C° 0 mm 1 m/s 751 mmHg 68%
    03:00 +9°C° 0 mm 1 m/s 751 mmHg 68%
    04:00 +9°C° 0 mm 1 m/s 752 mmHg 68%
    05:00 +9°C° 0 mm 1 m/s 752 mmHg 69%
    06:00 +11°C° 0 mm 1 m/s 752 mmHg 63%
    07:00 +13°C° 0 mm 1 m/s 752 mmHg 56%
    08:00 +16°C° 0 mm 1 m/s 752 mmHg 50%
    09:00 +18°C° 0 mm 1 m/s 752 mmHg 45%
    10:00 +20°C° 0 mm 1 m/s 752 mmHg 40%
    11:00 +21°C° 0 mm 2 m/s 752 mmHg 35%
    12:00 +21°C° 0 mm 2 m/s 751 mmHg 34%
    13:00 +23°C° 0 mm 2 m/s 751 mmHg 33%
    14:00 +23°C° 0 mm 2 m/s 751 mmHg 32%
    15:00 +23°C° 0 mm 2 m/s 751 mmHg 35%
    16:00 +22°C° 0 mm 1 m/s 751 mmHg 38%
    17:00 +22°C° 0 mm 1 m/s 751 mmHg 40%
    18:00 +20°C° 0 mm 1 m/s 750 mmHg 46%
    19:00 +18°C° 0 mm 1 m/s 750 mmHg 51%
    20:00 +15°C° 0 mm 1 m/s 750 mmHg 56%
    21:00 +14°C° 0 mm 1 m/s 750 mmHg 58%
    22:00 +13°C° 0 mm 1 m/s 750 mmHg 60%
    23:00 +13°C° 0 mm 1 m/s 750 mmHg 62%

    Amanhã, 25 Abril, Quinta-feira

    Tempo Temperatura Precipitação Vento Pressão Humidade
    00:00 +12°C° 0 mm 1 m/s 750 mmHg 63%
    01:00 +11°C° 0 mm 0 m/s 751 mmHg 65%
    02:00 +10°C° 0 mm 0 m/s 751 mmHg 66%
    03:00 +10°C° 0 mm 0 m/s 751 mmHg 67%
    04:00 +10°C° 0 mm 0 m/s 751 mmHg 68%
    05:00 +10°C° 0 mm 0 m/s 750 mmHg 69%
    06:00 +12°C° 0 mm 0 m/s 751 mmHg 62%
    07:00 +14°C° 0 mm 0 m/s 751 mmHg 55%
    08:00 +17°C° 0 mm 0 m/s 751 mmHg 49%
    09:00 +19°C° 0 mm 0 m/s 750 mmHg 43%
    10:00 +21°C° 0 mm 0 m/s 750 mmHg 38%
    11:00 +22°C° 0 mm 0 m/s 750 mmHg 33%
    12:00 +22°C° 0 mm 0 m/s 750 mmHg 33%
    13:00 +22°C° 0 mm 0 m/s 750 mmHg 32%
    14:00 +23°C° 0 mm 1 m/s 749 mmHg 32%
    15:00 +22°C° 0 mm 1 m/s 749 mmHg 37%
    16:00 +21°C° 0 mm 1 m/s 749 mmHg 41%
    17:00 +20°C° 0 mm 1 m/s 748 mmHg 46%
    18:00 +20°C° 0 mm 1 m/s 748 mmHg 47%
    19:00 +17°C° 0 mm 0 m/s 748 mmHg 49%
    20:00 +16°C° 0 mm 0 m/s 748 mmHg 50%
    21:00 +15°C° 0 mm 0 m/s 748 mmHg 52%
    22:00 +15°C° 0 mm 0 m/s 748 mmHg 54%
    23:00 +14°C° 0 mm 0 m/s 748 mmHg 55%

    Depois de amanhã, 26 Abril, Sexta-feira

    Tempo Temperatura Precipitação Vento Pressão Humidade
    00:00 +13°C° 0.1 mm 0 m/s 748 mmHg 59%
    01:00 +12°C° 0.1 mm 0 m/s 748 mmHg 63%
    02:00 +11°C° 0.1 mm 0 m/s 748 mmHg 66%
    03:00 +11°C° 0 mm 0 m/s 748 mmHg 67%
    04:00 +11°C° 0 mm 0 m/s 748 mmHg 69%
    05:00 +11°C° 0 mm 0 m/s 748 mmHg 70%
    06:00 +13°C° 0 mm 0 m/s 748 mmHg 65%
    07:00 +15°C° 0 mm 0 m/s 747 mmHg 59%
    08:00 +17°C° 0 mm 0 m/s 747 mmHg 53%
    09:00 +19°C° 0 mm 1 m/s 747 mmHg 51%
    10:00 +20°C° 0 mm 1 m/s 747 mmHg 48%
    11:00 +21°C° 0 mm 1 m/s 747 mmHg 46%
    12:00 +21°C° 0 mm 1 m/s 747 mmHg 43%
    13:00 +22°C° 0 mm 1 m/s 746 mmHg 41%
    14:00 +22°C° 0 mm 1 m/s 746 mmHg 38%
    15:00 +21°C° 0 mm 1 m/s 745 mmHg 40%
    16:00 +21°C° 0 mm 1 m/s 745 mmHg 42%
    17:00 +21°C° 0 mm 1 m/s 745 mmHg 43%
    18:00 +19°C° 0 mm 1 m/s 744 mmHg 49%
    19:00 +18°C° 0 mm 1 m/s 744 mmHg 54%
    20:00 +15°C° 0 mm 2 m/s 744 mmHg 60%
    21:00 +14°C° 0.1 mm 2 m/s 744 mmHg 63%
    22:00 +14°C° 0.1 mm 2 m/s 743 mmHg 66%
    23:00 +14°C° 0.1 mm 2 m/s 743 mmHg 69%

    27 Abril, Sábado

    Tempo Temperatura Precipitação Vento Pressão Humidade
    00:00 +13°C° 0.6 mm 1 m/s 743 mmHg 74%
    01:00 +13°C° 0.6 mm 1 m/s 743 mmHg 80%
    02:00 +13°C° 0.6 mm 1 m/s 742 mmHg 85%
    03:00 +13°C° 0.8 mm 1 m/s 742 mmHg 87%
    04:00 +12°C° 0.8 mm 1 m/s 742 mmHg 89%
    05:00 +12°C° 0.8 mm 1 m/s 741 mmHg 90%
    06:00 +13°C° 0.5 mm 1 m/s 741 mmHg 88%
    07:00 +13°C° 0.5 mm 1 m/s 741 mmHg 86%
    08:00 +14°C° 0.5 mm 1 m/s 740 mmHg 83%
    09:00 +16°C° 0.4 mm 2 m/s 740 mmHg 73%
    10:00 +17°C° 0.4 mm 2 m/s 740 mmHg 63%
    11:00 +19°C° 0.4 mm 2 m/s 740 mmHg 53%
    12:00 +20°C° 0 mm 2 m/s 739 mmHg 50%
    13:00 +20°C° 0 mm 2 m/s 739 mmHg 46%
    14:00 +21°C° 0 mm 2 m/s 739 mmHg 42%
    15:00 +21°C° 0 mm 2 m/s 738 mmHg 45%
    16:00 +20°C° 0 mm 2 m/s 738 mmHg 49%
    17:00 +20°C° 0 mm 2 m/s 738 mmHg 52%
    18:00 +18°C° 0.3 mm 2 m/s 738 mmHg 61%
    19:00 +16°C° 0.3 mm 2 m/s 738 mmHg 69%
    20:00 +14°C° 0.3 mm 1 m/s 738 mmHg 78%
    21:00 +13°C° 0 mm 2 m/s 739 mmHg 78%
    22:00 +12°C° 0 mm 2 m/s 739 mmHg 78%
    23:00 +11°C° 0 mm 3 m/s 739 mmHg 78%

    28 Abril, Domingo

    Tempo Temperatura Precipitação Vento Pressão Humidade
    00:00 +10°C° 0 mm 3 m/s 740 mmHg 79%
    01:00 +9°C° 0 mm 3 m/s 740 mmHg 80%
    02:00 +8°C° 0 mm 3 m/s 740 mmHg 80%
    03:00 +7°C° 0 mm 4 m/s 741 mmHg 79%
    04:00 +6°C° 0 mm 4 m/s 741 mmHg 78%
    05:00 +5°C° 0 mm 4 m/s 742 mmHg 76%
    06:00 +5°C° 0 mm 4 m/s 742 mmHg 71%
    07:00 +5°C° 0 mm 5 m/s 743 mmHg 65%
    08:00 +6°C° 0 mm 5 m/s 744 mmHg 60%
    09:00 +6°C° 0 mm 4 m/s 744 mmHg 55%
    10:00 +7°C° 0 mm 4 m/s 744 mmHg 51%
    11:00 +8°C° 0 mm 4 m/s 745 mmHg 46%
    12:00 +10°C° 0 mm 4 m/s 745 mmHg 45%
    13:00 +10°C° 0 mm 4 m/s 745 mmHg 44%
    14:00 +10°C° 0 mm 4 m/s 745 mmHg 43%
    15:00 +10°C° 0 mm 4 m/s 746 mmHg 44%
    16:00 +10°C° 0 mm 4 m/s 746 mmHg 46%
    17:00 +8°C° 0 mm 4 m/s 746 mmHg 47%
    18:00 +8°C° 0 mm 3 m/s 746 mmHg 51%
    19:00 +5°C° 0 mm 3 m/s 747 mmHg 55%
    20:00 +5°C° 0 mm 2 m/s 747 mmHg 59%
    21:00 +4°C° 0 mm 2 m/s 748 mmHg 60%
    22:00 +3°C° 0 mm 2 m/s 748 mmHg 61%
    23:00 +2°C° 0 mm 2 m/s 749 mmHg 62%

    29 Abril, Segunda-feira

    Tempo Temperatura Precipitação Vento Pressão Humidade
    00:00 +2°C° 0 mm 2 m/s 749 mmHg 65%
    01:00 +1°C° 0 mm 2 m/s 749 mmHg 67%
    02:00 -1°C° 0 mm 2 m/s 749 mmHg 69%
    03:00 -1°C° 0 mm 2 m/s 749 mmHg 70%
    04:00 -1°C° 0 mm 2 m/s 749 mmHg 71%
    05:00 -1°C° 0 mm 2 m/s 750 mmHg 72%
    06:00 +2°C° 0 mm 2 m/s 750 mmHg 65%
    07:00 +3°C° 0 mm 2 m/s 750 mmHg 58%
    08:00 +5°C° 0 mm 2 m/s 750 mmHg 50%
    09:00 +6°C° 0 mm 2 m/s 750 mmHg 46%
    10:00 +8°C° 0 mm 2 m/s 750 mmHg 42%
    11:00 +9°C° 0 mm 2 m/s 750 mmHg 37%
    12:00 +9°C° 0 mm 2 m/s 749 mmHg 36%
    13:00 +10°C° 0 mm 2 m/s 749 mmHg 34%
    14:00 +12°C° 0 mm 1 m/s 748 mmHg 32%
    15:00 +11°C° 0 mm 1 m/s 748 mmHg 33%
    16:00 +11°C° 0 mm 1 m/s 748 mmHg 34%
    17:00 +11°C° 0 mm 1 m/s 747 mmHg 34%
    18:00 +9°C° 0 mm 1 m/s 747 mmHg 40%
    19:00 +7°C° 0 mm 1 m/s 747 mmHg 46%
    20:00 +4°C° 0 mm 0 m/s 747 mmHg 51%
    21:00 +4°C° 0 mm 0 m/s 747 mmHg 53%
    22:00 +3°C° 0 mm 0 m/s 747 mmHg 54%
    23:00 +3°C° 0 mm 0 m/s 747 mmHg 55%
    Mostrar mais